Location: Усть-Лабинск
(45.2178°N, 39.6897°E)
Time: 04:47:06
(UTC+03:00)

ISS - Visible Passes

Search period start: 14 November 2025 00:00
Search period end: 24 November 2025 00:00
Orbit: 415 x 420 km, 51.6° (Epoch: 13 November)

Date Brightness Start Highest point End Pass type
(mag) Time Alt. Az. Time Alt. Az. Time Alt. Az.
14 Nov -2.4 17:52:09 10° SSW 17:54:58 25° SE 17:56:40 17° E visible
14 Nov -1.2 19:28:16 10° WSW 19:29:36 22° W 19:29:36 22° W visible
15 Nov -3.9 18:40:06 10° WSW 18:43:26 82° NNW 18:43:36 78° NNE visible
16 Nov -3.7 17:52:02 10° SW 17:55:20 64° SSE 17:57:30 20° ENE visible
16 Nov -1.0 19:29:12 10° W 19:30:25 19° WNW 19:30:25 19° WNW visible
17 Nov -3.0 18:40:48 10° W 18:44:01 42° NNW 18:44:14 41° N visible
18 Nov -3.4 17:52:27 10° WSW 17:55:45 58° NNW 17:57:59 19° NE visible
18 Nov -0.8 19:30:04 10° WNW 19:30:53 15° NW 19:30:53 15° NW visible
19 Nov -2.4 18:41:35 10° WNW 18:44:34 29° N 18:44:34 29° N visible
20 Nov -2.6 17:53:04 10° W 17:56:10 34° NNW 17:58:11 18° NE visible
20 Nov -0.7 19:30:36 10° NW 19:31:06 13° NW 19:31:06 13° NW visible
21 Nov -2.1 18:42:09 10° WNW 18:44:40 25° NNW 18:44:40 25° NNW visible
22 Nov -2.3 17:53:37 10° WNW 17:56:32 27° N 17:58:14 18° NE visible
22 Nov -0.6 19:30:46 10° NW 19:31:08 12° NW 19:31:08 12° NW visible
23 Nov -2.2 18:42:22 10° NW 18:44:40 26° NNW 18:44:40 26° NNW visible
